{"data":{"norad_id":56897,"epoch":"2026-09-19T19:10:17.162400Z","epoch_age_seconds":178083,"freshness":"STALE","line1":"1 56897U 23083X   26262.79880975  .00000802  00000+0  38680-4 0  9990","line2":"2 56897  43.0047  72.6541 0001425 268.6099  91.4590 15.27580322181386","mean_motion":15.27580322,"eccentricity":0.0001425,"inclination_deg":43.0047,"raan_deg":72.6541,"arg_perigee_deg":268.6099,"mean_anomaly_deg":91.459,"bstar":3.868e-5,"rev_number":18138,"period_min":94.266728843081,"perigee_km":482.07041297469,"apogee_km":484.02585073727,"semimajor_km":6861.185131856,"source":"CELESTRAK","updated_at":"2026-09-21T09:00:33.523899Z"}}